| time (UTC) | temp F | wind direction | speed MPH | gust MPH | rain 1hr in | rain 24hr in | rain mn in | humidity % | barometer mb |
| 20260508122805 | 52 | 301 | 4.0 | 8.0 | 0.00 | 0.00 | 0.00 | 60 | 1010.0 |
| 20260508122226 | 52 | 17 | 2.0 | 9.0 | 0.00 | 0.00 | 0.00 | 59 | 1009.9 |
| 20260508121739 | 51 | 13 | 4.0 | 9.0 | 0.00 | 0.00 | 0.00 | 60 | 1009.9 |
| 20260508121517 | 51 | 14 | 6.0 | 9.0 | 0.00 | 0.00 | 0.00 | 60 | 1009.2 |
| 20260508121252 | 51 | 309 | 5.0 | 8.0 | 0.00 | 0.00 | 0.00 | 60 | 1010.0 |
| 20260508120735 | 51 | 44 | 5.0 | 6.0 | 0.00 | 0.00 | 0.00 | 59 | 1009.8 |
| 20260508120246 | 51 | 348 | 4.0 | 9.0 | 0.00 | 0.00 | 0.00 | 59 | 1009.9 |
| 20260508120031 | 50 | 5 | 3.0 | 9.0 | 0.00 | 0.00 | 0.00 | 59 | 1009.0 |
| 20260508115725 | 51 | 355 | 6.0 | 9.0 | 0.00 | 0.00 | 0.00 | 59 | 1009.9 |
| 20260508115235 | 51 | 338 | 4.0 | 6.0 | 0.00 | 0.00 | 0.00 | 60 | 1010.0 |
| 20260508114748 | 50 | 355 | 4.0 | 6.0 | 0.00 | 0.00 | 0.00 | 60 | 1010.0 |
| 20260508114527 | 50 | 347 | 4.0 | 5.0 | 0.00 | 0.00 | 0.00 | 59 | 1009.2 |
| 20260508114231 | 50 | 5 | 5.0 | 5.0 | 0.00 | 0.00 | 0.00 | 59 | 1009.7 |
| 20260508113742 | 50 | 168 | 5.0 | 5.0 | 0.00 | 0.00 | 0.00 | 59 | 1009.7 |
| 20260508113224 | 50 | 168 | 4.0 | 5.0 | 0.00 | 0.00 | 0.00 | 58 | 1009.7 |
| 20260508113029 | 50 | 168 | 3.0 | 5.0 | 0.00 | 0.00 | 0.00 | 58 | 1008.9 |
| 20260508112739 | 50 | 168 | 4.0 | 5.0 | 0.00 | 0.00 | 0.00 | 58 | 1009.7 |
| 20260508112239 | 50 | 168 | 3.0 | 5.0 | 0.00 | 0.00 | 0.00 | 57 | 1009.7 |
| 20260508111739 | 51 | 168 | 3.0 | 5.0 | 0.00 | 0.00 | 0.00 | 57 | 1009.7 |
| 20260508111544 | 50 | 168 | 3.0 | 5.0 | 0.00 | 0.00 | 0.00 | 57 | 1009.0 |
| 20260508111301 | 51 | 168 | 4.0 | 6.0 | 0.00 | 0.00 | 0.00 | 57 | 1009.7 |
| 20260508110750 | 51 | 168 | 4.0 | 6.0 | 0.00 | 0.00 | 0.00 | 57 | 1009.8 |
| 20260508110306 | 51 | 168 | 5.0 | 6.0 | 0.00 | 0.00 | 0.00 | 57 | 1009.8 |
| 20260508110022 | 51 | 168 | 5.0 | 6.0 | 0.00 | 0.00 | 0.00 | 57 | 1009.0 |
| 20260508105731 | 51 | 168 | 4.0 | 5.0 | 0.00 | 0.00 | 0.00 | 57 | 1009.9 |
| 20260508105321 | 51 | 168 | 1.0 | 8.0 | 0.00 | 0.00 | 0.00 | 56 | 1009.8 |
| 20260508104728 | 51 | 168 | 5.0 | 9.0 | 0.00 | 0.00 | 0.00 | 56 | 1009.7 |
| 20260508104542 | 51 | 168 | 5.0 | 9.0 | 0.00 | 0.00 | 0.00 | 56 | 1008.9 |
| 20260508104241 | 52 | 163 | 5.0 | 9.0 | 0.00 | 0.00 | 0.00 | 55 | 1009.7 |
| 20260508103722 | 52 | 14 | 5.0 | 9.0 | 0.00 | 0.00 | 0.00 | 56 | 1010.0 |
| 20260508103235 | 52 | 20 | 6.0 | 9.0 | 0.00 | 0.00 | 0.00 | 56 | 1009.9 |
| 20260508103048 | 51 | 17 | 7.0 | 9.0 | 0.00 | 0.00 | 0.00 | 56 | 1009.2 |
| 20260508102743 | 52 | 10 | 7.0 | 10.0 | 0.00 | 0.00 | 0.00 | 57 | 1010.1 |
| 20260508102227 | 52 | 21 | 8.0 | 10.0 | 0.00 | 0.00 | 0.00 | 58 | 1010.2 |
| 20260508101740 | 52 | 12 | 7.0 | 9.0 | 0.00 | 0.00 | 0.00 | 56 | 1009.9 |
| 20260508101556 | 51 | 13 | 5.0 | 8.0 | 0.00 | 0.00 | 0.00 | 55 | 1009.2 |
| 20260508101249 | 52 | 9 | 4.0 | 6.0 | 0.00 | 0.00 | 0.00 | 56 | 1010.0 |
| 20260508100731 | 52 | 32 | 3.0 | 8.0 | 0.00 | 0.00 | 0.00 | 56 | 1010.1 |
| 20260508100259 | 52 | 5 | 6.0 | 8.0 | 0.00 | 0.00 | 0.00 | 57 | 1010.2 |
| 20260508100034 | 51 | 13 | 5.0 | 8.0 | 0.00 | 0.00 | 0.00 | 57 | 1009.4 |
| 20260508095722 | 52 | 17 | 6.0 | 9.0 | 0.00 | 0.00 | 0.00 | 59 | 1010.2 |
| 20260508095234 | 52 | 25 | 6.0 | 9.0 | 0.00 | 0.00 | 0.00 | 59 | 1010.2 |
| 20260508094744 | 52 | 19 | 6.0 | 8.0 | 0.00 | 0.00 | 0.00 | 56 | 1010.3 |
| 20260508094537 | 52 | 5 | 6.0 | 8.0 | 0.00 | 0.00 | 0.00 | 56 | 1009.7 |
| 20260508094229 | 53 | 355 | 5.0 | 8.0 | 0.00 | 0.00 | 0.00 | 56 | 1010.4 |
| 20260508093735 | 53 | 5 | 6.0 | 8.0 | 0.00 | 0.00 | 0.00 | 55 | 1010.4 |
| 20260508093247 | 53 | 5 | 5.0 | 6.0 | 0.00 | 0.00 | 0.00 | 53 | 1010.3 |
| 20260508093036 | 53 | 5 | 4.0 | 5.0 | 0.00 | 0.00 | 0.00 | 52 | 1009.6 |
| 20260508092729 | 54 | 201 | 4.0 | 4.0 | 0.00 | 0.00 | 0.00 | 51 | 1010.2 |
| 20260508092239 | 54 | 201 | 2.0 | 4.0 | 0.00 | 0.00 | 0.00 | 50 | 1010.2 |
| 20260508091750 | 54 | 201 | 2.0 | 4.0 | 0.00 | 0.00 | 0.00 | 50 | 1010.1 |
| 20260508091538 | 54 | 201 | 2.0 | 4.0 | 0.00 | 0.00 | 0.00 | 50 | 1009.5 |
| 20260508091236 | 54 | 202 | 1.0 | 3.0 | 0.00 | 0.00 | 0.00 | 50 | 1010.3 |
| 20260508090745 | 55 | 201 | 2.0 | 3.0 | 0.00 | 0.00 | 0.00 | 50 | 1010.3 |
| 20260508090225 | 55 | 201 | 0.0 | 4.0 | 0.00 | 0.00 | 0.00 | 49 | 1010.3 |
| 20260508090040 | 54 | 201 | 0.0 | 4.0 | 0.00 | 0.00 | 0.00 | 49 | 1009.7 |
| 20260508085752 | 55 | 201 | 3.0 | 4.0 | 0.00 | 0.00 | 0.00 | 48 | 1010.2 |
| 20260508085243 | 55 | 5 | 0.0 | 4.0 | 0.00 | 0.00 | 0.00 | 49 | 1010.3 |
| 20260508084726 | 55 | 5 | 1.0 | 4.0 | 0.00 | 0.00 | 0.00 | 49 | 1010.5 |
| 20260508084522 | 55 | 5 | 2.0 | 4.0 | 0.00 | 0.00 | 0.00 | 51 | 1009.7 |
| 20260508084240 | 55 | 360 | 3.0 | 5.0 | 0.00 | 0.00 | 0.00 | 50 | 1010.3 |
| 20260508083751 | 55 | 20 | 3.0 | 5.0 | 0.00 | 0.00 | 0.00 | 49 | 1010.1 |
| 20260508083301 | 55 | 204 | 3.0 | 4.0 | 0.00 | 0.00 | 0.00 | 48 | 1010.1 |
| 20260508083037 | 55 | 204 | 2.0 | 4.0 | 0.00 | 0.00 | 0.00 | 49 | 1009.4 |
| 20260508082725 | 56 | 204 | 1.0 | 4.0 | 0.00 | 0.00 | 0.00 | 48 | 1010.5 |
| 20260508082252 | 56 | 204 | 3.0 | 4.0 | 0.00 | 0.00 | 0.00 | 48 | 1010.2 |
| 20260508081742 | 56 | 204 | 2.0 | 4.0 | 0.00 | 0.00 | 0.00 | 48 | 1010.3 |
| 20260508081520 | 55 | 204 | 0.0 | 4.0 | 0.00 | 0.00 | 0.00 | 47 | 1009.8 |
| 20260508081256 | 56 | 204 | 2.0 | 4.0 | 0.00 | 0.00 | 0.00 | 46 | 1010.4 |
| 20260508080804 | 56 | 204 | 2.0 | 4.0 | 0.00 | 0.00 | 0.00 | 46 | 1010.6 |
| 20260508080225 | 56 | 204 | 0.0 | 7.0 | 0.00 | 0.00 | 0.00 | 47 | 1010.6 |
| 20260508080046 | 56 | 204 | 1.0 | 7.0 | 0.00 | 0.00 | 0.00 | 47 | 1010.1 |
| 20260508075731 | 56 | 204 | 5.0 | 7.0 | 0.00 | 0.00 | 0.00 | 46 | 1010.8 |
| 20260508075238 | 57 | 74 | 3.0 | 4.0 | 0.00 | 0.00 | 0.00 | 46 | 1010.6 |
| 20260508074809 | 57 | 120 | 1.0 | 2.0 | 0.00 | 0.00 | 0.00 | 46 | 1011.0 |
| 20260508074526 | 56 | 120 | 0.0 | 2.0 | 0.00 | 0.00 | 0.00 | 48 | 1010.4 |
| 20260508074232 | 57 | 120 | 1.0 | 3.0 | 0.00 | 0.00 | 0.00 | 46 | 1010.7 |
| 20260508073743 | 57 | 120 | 1.0 | 3.0 | 0.00 | 0.00 | 0.00 | 43 | 1010.8 |
| 20260508073226 | 57 | 120 | 2.0 | 6.0 | 0.00 | 0.00 | 0.00 | 43 | 1010.7 |
| 20260508073025 | 56 | 120 | 2.0 | 6.0 | 0.00 | 0.00 | 0.00 | 43 | 1010.0 |
| 20260508072737 | 57 | 120 | 3.0 | 6.0 | 0.00 | 0.00 | 0.00 | 43 | 1010.5 |
| 20260508072249 | 57 | 76 | 4.0 | 5.0 | 0.00 | 0.00 | 0.00 | 44 | 1010.3 |
| 20260508071727 | 57 | 52 | 1.0 | 6.0 | 0.00 | 0.00 | 0.00 | 43 | 1010.6 |
| 20260508071533 | 56 | 50 | 0.0 | 6.0 | 0.00 | 0.00 | 0.00 | 45 | 1010.0 |
| 20260508071240 | 57 | 34 | 4.0 | 6.0 | 0.00 | 0.00 | 0.00 | 46 | 1010.3 |
| 20260508070722 | 57 | 40 | 5.0 | 6.0 | 0.00 | 0.00 | 0.00 | 45 | 1010.3 |
| 20260508070234 | 57 | 26 | 4.0 | 5.0 | 0.00 | 0.00 | 0.00 | 44 | 1010.4 |
| 20260508070035 | 56 | 30 | 4.0 | 5.0 | 0.00 | 0.00 | 0.00 | 44 | 1009.8 |
| 20260508065746 | 57 | 52 | 4.0 | 5.0 | 0.00 | 0.00 | 0.00 | 43 | 1010.4 |
| 20260508065231 | 57 | 52 | 4.0 | 7.0 | 0.00 | 0.00 | 0.00 | 44 | 1010.4 |
| 20260508064742 | 57 | 38 | 5.0 | 7.0 | 0.00 | 0.00 | 0.00 | 46 | 1010.4 |
| 20260508064541 | 56 | 39 | 4.0 | 5.0 | 0.00 | 0.00 | 0.00 | 45 | 1009.8 |
| 20260508064228 | 57 | 53 | 4.0 | 5.0 | 0.00 | 0.00 | 0.00 | 44 | 1010.4 |
| 20260508063733 | 57 | 53 | 3.0 | 5.0 | 0.00 | 0.00 | 0.00 | 42 | 1010.6 |
| 20260508063245 | 57 | 54 | 4.0 | 5.0 | 0.00 | 0.00 | 0.00 | 42 | 1010.5 |
| 20260508063027 | 56 | 137 | 3.0 | 4.0 | 0.00 | 0.00 | 0.00 | 42 | 1010.0 |
| 20260508062728 | 57 | 137 | 3.0 | 4.0 | 0.00 | 0.00 | 0.00 | 43 | 1010.6 |
| 20260508062241 | 57 | 137 | 1.0 | 4.0 | 0.00 | 0.00 | 0.00 | 43 | 1010.7 |
| 20260508061724 | 57 | 137 | 2.0 | 4.0 | 0.00 | 0.00 | 0.00 | 43 | 1010.8 |
| 20260508061539 | 57 | 137 | 3.0 | 4.0 | 0.00 | 0.00 | 0.00 | 43 | 1010.2 |
| 20260508061237 | 58 | 137 | 4.0 | 4.0 | 0.00 | 0.00 | 0.00 | 43 | 1010.8 |
| 20260508060745 | 58 | 137 | 3.0 | 4.0 | 0.00 | 0.00 | 0.00 | 40 | 1010.8 |
| 20260508060229 | 58 | 91 | 2.0 | 4.0 | 0.00 | 0.00 | 0.00 | 39 | 1010.8 |
| 20260508060041 | 57 | 91 | 2.0 | 4.0 | 0.00 | 0.00 | 0.00 | 39 | 1010.1 |
| 20260508055738 | 58 | 91 | 3.0 | 4.0 | 0.00 | 0.00 | 0.00 | 40 | 1010.7 |
| 20260508055222 | 58 | 61 | 3.0 | 4.0 | 0.00 | 0.00 | 0.00 | 40 | 1010.6 |
| 20260508054733 | 58 | 57 | 3.0 | 4.0 | 0.00 | 0.00 | 0.00 | 40 | 1010.5 |
| 20260508054549 | 58 | 57 | 3.0 | 4.0 | 0.00 | 0.00 | 0.00 | 40 | 1009.8 |
| 20260508054244 | 58 | 57 | 3.0 | 5.0 | 0.00 | 0.00 | 0.00 | 40 | 1010.5 |
| 20260508053724 | 58 | 56 | 3.0 | 5.0 | 0.00 | 0.00 | 0.00 | 40 | 1010.4 |
| 20260508053236 | 58 | 57 | 3.0 | 5.0 | 0.00 | 0.00 | 0.00 | 40 | 1010.4 |
| 20260508053101 | 58 | 51 | 3.0 | 5.0 | 0.00 | 0.00 | 0.00 | 40 | 1009.8 |
| 20260508052746 | 58 | 53 | 4.0 | 5.0 | 0.00 | 0.00 | 0.00 | 40 | 1010.3 |
| 20260508052230 | 58 | 66 | 4.0 | 5.0 | 0.00 | 0.00 | 0.00 | 40 | 1010.4 |
| 20260508051737 | 58 | 58 | 4.0 | 5.0 | 0.00 | 0.00 | 0.00 | 40 | 1010.3 |
| 20260508051605 | 58 | 56 | 3.0 | 5.0 | 0.00 | 0.00 | 0.00 | 39 | 1009.8 |
| 20260508051249 | 58 | 50 | 4.0 | 6.0 | 0.00 | 0.00 | 0.00 | 39 | 1010.4 |
| 20260508050739 | 58 | 22 | 4.0 | 6.0 | 0.00 | 0.00 | 0.00 | 39 | 1010.4 |
| 20260508050248 | 58 | 24 | 4.0 | 5.0 | 0.00 | 0.00 | 0.00 | 40 | 1010.4 |
| 20260508050033 | 58 | 39 | 3.0 | 6.0 | 0.00 | 0.00 | 0.00 | 39 | 1010.0 |
| 20260508045749 | 58 | 42 | 4.0 | 6.0 | 0.00 | 0.00 | 0.00 | 39 | 1010.5 |
| 20260508045232 | 58 | 42 | 4.0 | 6.0 | 0.00 | 0.00 | 0.00 | 39 | 1010.6 |
| 20260508044743 | 58 | 49 | 4.0 | 5.0 | 0.00 | 0.00 | 0.00 | 38 | 1010.7 |
| 20260508044515 | 58 | 58 | 3.0 | 5.0 | 0.00 | 0.00 | 0.00 | 38 | 1010.2 |
| 20260508044232 | 58 | 58 | 3.0 | 4.0 | 0.00 | 0.00 | 0.00 | 38 | 1010.7 |
| 20260508043744 | 58 | 58 | 3.0 | 4.0 | 0.00 | 0.00 | 0.00 | 38 | 1010.8 |
| 20260508043228 | 58 | 62 | 3.0 | 5.0 | 0.00 | 0.00 | 0.00 | 37 | 1010.8 |
| 20260508043022 | 58 | 62 | 3.0 | 5.0 | 0.00 | 0.00 | 0.00 | 37 | 1010.3 |
| 20260508042739 | 59 | 62 | 3.0 | 5.0 | 0.00 | 0.00 | 0.00 | 37 | 1010.8 |
| 20260508042252 | 59 | 66 | 4.0 | 5.0 | 0.00 | 0.00 | 0.00 | 37 | 1010.7 |
| 20260508041743 | 59 | 71 | 4.0 | 5.0 | 0.00 | 0.00 | 0.00 | 37 | 1010.7 |
| 20260508041608 | 58 | 64 | 3.0 | 5.0 | 0.00 | 0.00 | 0.00 | 37 | 1010.2 |
| 20260508041514 | 58 | 65 | 3.0 | 5.0 | 0.00 | 0.00 | 0.00 | 37 | 1010.2 |
| 20260508041227 | 59 | 66 | 3.0 | 5.0 | 0.00 | 0.00 | 0.00 | 37 | 1010.8 |
| 20260508040733 | 59 | 67 | 4.0 | 7.0 | 0.00 | 0.00 | 0.00 | 37 | 1010.8 |
| 20260508040243 | 59 | 83 | 4.0 | 7.0 | 0.00 | 0.00 | 0.00 | 37 | 1010.8 |
| 20260508040010 | 58 | 92 | 4.0 | 7.0 | 0.00 | 0.00 | 0.00 | 37 | 1010.2 |
| 20260508035726 | 59 | 88 | 5.0 | 7.0 | 0.00 | 0.00 | 0.00 | 37 | 1010.7 |
| 20260508035237 | 59 | 86 | 4.0 | 7.0 | 0.00 | 0.00 | 0.00 | 37 | 1010.6 |
| 20260508034723 | 59 | 83 | 4.0 | 7.0 | 0.00 | 0.00 | 0.00 | 37 | 1010.5 |
| 20260508034526 | 59 | 68 | 4.0 | 6.0 | 0.00 | 0.00 | 0.00 | 36 | 1010.1 |
| 20260508034237 | 60 | 86 | 4.0 | 6.0 | 0.00 | 0.00 | 0.00 | 36 | 1010.6 |
| 20260508033746 | 60 | 82 | 4.0 | 6.0 | 0.00 | 0.00 | 0.00 | 36 | 1010.6 |
| 20260508033237 | 60 | 49 | 4.0 | 5.0 | 0.00 | 0.00 | 0.00 | 36 | 1010.7 |
| 20260508033009 | 60 | 49 | 3.0 | 4.0 | 0.00 | 0.00 | 0.00 | 36 | 1010.2 |
| 20260508032748 | 60 | 49 | 3.0 | 4.0 | 0.00 | 0.00 | 0.00 | 36 | 1010.8 |
| 20260508032238 | 60 | 49 | 3.0 | 4.0 | 0.00 | 0.00 | 0.00 | 36 | 1010.8 |
| 20260508031749 | 61 | 49 | 3.0 | 4.0 | 0.00 | 0.00 | 0.00 | 35 | 1010.7 |
| 20260508031532 | 60 | 49 | 3.0 | 4.0 | 0.00 | 0.00 | 0.00 | 35 | 1010.2 |
| 20260508031302 | 61 | 49 | 3.0 | 4.0 | 0.00 | 0.00 | 0.00 | 35 | 1010.7 |
| 20260508030723 | 61 | 49 | 3.0 | 5.0 | 0.00 | 0.00 | 0.00 | 35 | 1010.7 |
| 20260508030237 | 61 | 49 | 4.0 | 5.0 | 0.00 | 0.00 | 0.00 | 35 | 1010.7 |
| 20260508030019 | 61 | 49 | 3.0 | 5.0 | 0.00 | 0.00 | 0.00 | 35 | 1010.2 |
| 20260508025744 | 61 | 49 | 4.0 | 5.0 | 0.00 | 0.00 | 0.00 | 35 | 1010.7 |
| 20260508025225 | 61 | 49 | 4.0 | 5.0 | 0.00 | 0.00 | 0.00 | 34 | 1010.7 |
| 20260508024736 | 61 | 49 | 4.0 | 6.0 | 0.00 | 0.00 | 0.00 | 34 | 1010.6 |
| 20260508024525 | 61 | 49 | 3.0 | 6.0 | 0.00 | 0.00 | 0.00 | 34 | 1010.1 |
| 20260508024223 | 62 | 49 | 4.0 | 6.0 | 0.00 | 0.00 | 0.00 | 33 | 1010.5 |
| 20260508023736 | 62 | 44 | 3.0 | 5.0 | 0.00 | 0.00 | 0.00 | 33 | 1010.5 |
| 20260508023222 | 62 | 44 | 2.0 | 4.0 | 0.00 | 0.00 | 0.00 | 32 | 1010.5 |
| 20260508023030 | 62 | 32 | 2.0 | 5.0 | 0.00 | 0.00 | 0.00 | 32 | 1010.1 |
| 20260508022733 | 62 | 42 | 3.0 | 5.0 | 0.00 | 0.00 | 0.00 | 32 | 1010.5 |
| 20260508022244 | 63 | 26 | 3.0 | 5.0 | 0.00 | 0.00 | 0.00 | 32 | 1010.4 |
| 20260508021727 | 63 | 19 | 4.0 | 5.0 | 0.00 | 0.00 | 0.00 | 31 | 1010.3 |
| 20260508021530 | 63 | 10 | 3.0 | 5.0 | 0.00 | 0.00 | 0.00 | 31 | 1009.8 |
| 20260508021239 | 63 | 9 | 3.0 | 4.0 | 0.00 | 0.00 | 0.00 | 31 | 1010.2 |
| 20260508020750 | 64 | 9 | 2.0 | 4.0 | 0.00 | 0.00 | 0.00 | 31 | 1010.0 |
| 20260508020242 | 64 | 9 | 2.0 | 4.0 | 0.00 | 0.00 | 0.00 | 30 | 1010.0 |
| 20260508020058 | 64 | 9 | 3.0 | 4.0 | 0.00 | 0.00 | 0.00 | 30 | 1009.4 |
| 20260508015733 | 64 | 9 | 3.0 | 4.0 | 0.00 | 0.00 | 0.00 | 30 | 1009.9 |
| 20260508015246 | 65 | 5 | 3.0 | 5.0 | 0.00 | 0.00 | 0.00 | 30 | 1009.9 |
| 20260508014730 | 65 | 9 | 3.0 | 6.0 | 0.00 | 0.00 | 0.00 | 29 | 1009.9 |
| 20260508014600 | 65 | 355 | 3.0 | 6.0 | 0.00 | 0.00 | 0.00 | 30 | 1009.4 |
| 20260508014243 | 65 | 350 | 4.0 | 6.0 | 0.00 | 0.00 | 0.00 | 30 | 1009.8 |
| 20260508013809 | 66 | 355 | 4.0 | 6.0 | 0.00 | 0.00 | 0.00 | 29 | 1009.9 |
| 20260508013235 | 66 | 350 | 4.0 | 6.0 | 0.00 | 0.00 | 0.00 | 29 | 1009.8 |
| 20260508013044 | 66 | 355 | 4.0 | 6.0 | 0.00 | 0.00 | 0.00 | 28 | 1009.2 |
| 20260508012748 | 67 | 343 | 5.0 | 6.0 | 0.00 | 0.00 | 0.00 | 28 | 1009.7 |
| 20260508012233 | 67 | 355 | 4.0 | 6.0 | 0.00 | 0.00 | 0.00 | 28 | 1009.6 |
| 20260508011807 | 68 | 350 | 5.0 | 10.0 | 0.00 | 0.00 | 0.00 | 28 | 1009.6 |
| 20260508011524 | 68 | 5 | 4.0 | 10.0 | 0.00 | 0.00 | 0.00 | 28 | 1009.1 |
| 20260508011232 | 68 | 355 | 6.0 | 10.0 | 0.00 | 0.00 | 0.00 | 27 | 1009.5 |
| 20260508010744 | 69 | 360 | 7.0 | 10.0 | 0.00 | 0.00 | 0.00 | 27 | 1009.5 |
| 20260508010221 | 70 | 360 | 7.0 | 9.0 | 0.00 | 0.00 | 0.00 | 27 | 1009.5 |
| 20260508010029 | 69 | 360 | 5.0 | 9.0 | 0.00 | 0.00 | 0.00 | 27 | 1009.0 |
| 20260508005754 | 70 | 347 | 5.0 | 9.0 | 0.00 | 0.00 | 0.00 | 27 | 1009.4 |
| 20260508005245 | 70 | 345 | 4.0 | 6.0 | 0.00 | 0.00 | 0.00 | 26 | 1009.4 |
| 20260508004733 | 70 | 340 | 4.0 | 8.0 | 0.00 | 0.00 | 0.00 | 26 | 1009.4 |
| 20260508004514 | 70 | 316 | 4.0 | 13.0 | 0.00 | 0.00 | 0.00 | 26 | 1008.9 |
| 20260508004246 | 71 | 333 | 4.0 | 13.0 | 0.00 | 0.00 | 0.00 | 25 | 1009.2 |
| 20260508003728 | 71 | 327 | 8.0 | 14.0 | 0.00 | 0.00 | 0.00 | 25 | 1009.1 |
| 20260508003241 | 71 | 331 | 9.0 | 14.0 | 0.00 | 0.00 | 0.00 | 24 | 1009.2 |
| 20260508003022 | 71 | 321 | 9.0 | 14.0 | 0.00 | 0.00 | 0.00 | 24 | 1008.7 |
| 20260508002725 | 71 | 355 | 7.0 | 12.0 | 0.00 | 0.00 | 0.00 | 24 | 1009.2 |
| 20260508002234 | 71 | 305 | 7.0 | 16.0 | 0.00 | 0.00 | 0.00 | 23 | 1009.2 |
| 20260508001805 | 72 | 343 | 9.0 | 16.0 | 0.00 | 0.00 | 0.00 | 23 | 1009.1 |
| 20260508001503 | 71 | 317 | 8.0 | 13.0 | 0.00 | 0.00 | 0.00 | 23 | 1008.6 |
| 20260508001230 | 72 | 317 | 8.0 | 15.0 | 0.00 | 0.00 | 0.00 | 24 | 1009.1 |
| 20260508000740 | 72 | 334 | 10.0 | 16.0 | 0.00 | 0.00 | 0.00 | 24 | 1009.0 |
| 20260508000227 | 72 | 311 | 9.0 | 17.0 | 0.00 | 0.00 | 0.00 | 24 | 1009.0 |
| 20260508000011 | 72 | 325 | 9.0 | 17.0 | 0.00 | 0.00 | 0.00 | 24 | 1008.6 |
| 20260507235737 | 73 | 314 | 9.0 | 17.0 | 0.00 | 0.00 | 0.00 | 23 | 1009.0 |
| 20260507235249 | 73 | 304 | 11.0 | 20.0 | 0.00 | 0.00 | 0.00 | 24 | 1009.0 |
| 20260507234736 | 73 | 291 | 10.0 | 20.0 | 0.00 | 0.00 | 0.00 | 23 | 1009.0 |
| 20260507234505 | 73 | 321 | 13.0 | 20.0 | 0.00 | 0.00 | 0.00 | 23 | 1008.7 |
| 20260507234251 | 73 | 275 | 10.0 | 14.0 | 0.00 | 0.00 | 0.00 | 24 | 1009.1 |
| 20260507233741 | 73 | 292 | 7.0 | 12.0 | 0.00 | 0.00 | 0.00 | 25 | 1009.1 |
| 20260507233226 | 73 | 317 | 6.0 | 11.0 | 0.00 | 0.00 | 0.00 | 25 | 1009.0 |
| 20260507233044 | 72 | 302 | 7.0 | 16.0 | 0.00 | 0.00 | 0.00 | 25 | 1008.6 |
| 20260507232740 | 73 | 318 | 6.0 | 16.0 | 0.00 | 0.00 | 0.00 | 24 | 1009.0 |
| 20260507232224 | 73 | 324 | 12.0 | 16.0 | 0.00 | 0.00 | 0.00 | 24 | 1009.1 |
| 20260507231736 | 73 | 272 | 8.0 | 13.0 | 0.00 | 0.00 | 0.00 | 25 | 1009.0 |
| 20260507231552 | 72 | 292 | 6.0 | 13.0 | 0.00 | 0.00 | 0.00 | 27 | 1008.9 |
| 20260507231222 | 73 | 277 | 9.0 | 13.0 | 0.00 | 0.00 | 0.00 | 26 | 1009.1 |
| 20260507230749 | 73 | 331 | 6.0 | 17.0 | 0.00 | 0.00 | 0.00 | 27 | 1009.1 |
| 20260507230233 | 73 | 327 | 11.0 | 17.0 | 0.00 | 0.00 | 0.00 | 25 | 1009.0 |
| 20260507230052 | 72 | 330 | 11.0 | 17.0 | 0.00 | 0.00 | 0.00 | 27 | 1008.7 |
| 20260507225745 | 72 | 263 | 7.0 | 15.0 | 0.00 | 0.00 | 0.00 | 26 | 1009.0 |
| 20260507225227 | 73 | 342 | 9.0 | 16.0 | 0.00 | 0.00 | 0.00 | 27 | 1009.0 |
| 20260507224738 | 73 | 338 | 10.0 | 17.0 | 0.00 | 0.00 | 0.00 | 27 | 1009.0 |
| 20260507224559 | 72 | 343 | 11.0 | 17.0 | 0.00 | 0.00 | 0.00 | 26 | 1008.6 |
| 20260507224230 | 73 | 325 | 12.0 | 17.0 | 0.00 | 0.00 | 0.00 | 26 | 1009.1 |
| 20260507223740 | 73 | 312 | 8.0 | 16.0 | 0.00 | 0.00 | 0.00 | 27 | 1009.2 |
| 20260507223308 | 74 | 323 | 11.0 | 16.0 | 0.00 | 0.00 | 0.00 | 26 | 1009.2 |
| 20260507223022 | 73 | 324 | 6.0 | 15.0 | 0.00 | 0.00 | 0.00 | 27 | 1008.8 |
| 20260507222730 | 73 | 291 | 9.0 | 15.0 | 0.00 | 0.00 | 0.00 | 27 | 1009.2 |
| 20260507222245 | 73 | 319 | 12.0 | 16.0 | 0.00 | 0.00 | 0.00 | 26 | 1009.2 |
| 20260507221728 | 74 | 321 | 12.0 | 18.0 | 0.00 | 0.00 | 0.00 | 26 | 1009.2 |
| 20260507221529 | 73 | 315 | 11.0 | 19.0 | 0.00 | 0.00 | 0.00 | 26 | 1008.9 |
| 20260507221241 | 73 | 296 | 10.0 | 19.0 | 0.00 | 0.00 | 0.00 | 26 | 1009.2 |
| 20260507220724 | 74 | 338 | 13.0 | 19.0 | 0.00 | 0.00 | 0.00 | 25 | 1009.2 |
| 20260507220235 | 74 | 292 | 11.0 | 18.0 | 0.00 | 0.00 | 0.00 | 25 | 1009.2 |
| 20260507220031 | 74 | 298 | 7.0 | 20.0 | 0.00 | 0.00 | 0.00 | 26 | 1008.8 |
| 20260507215743 | 74 | 284 | 9.0 | 20.0 | 0.00 | 0.00 | 0.00 | 25 | 1009.2 |
| 20260507215227 | 74 | 278 | 13.0 | 23.0 | 0.00 | 0.00 | 0.00 | 24 | 1009.2 |
| 20260507214739 | 74 | 305 | 17.0 | 23.0 | 0.00 | 0.00 | 0.00 | 25 | 1009.1 |
| 20260507214538 | 73 | 294 | 13.0 | 22.0 | 0.00 | 0.00 | 0.00 | 24 | 1008.7 |
| 20260507214252 | 74 | 286 | 16.0 | 24.0 | 0.00 | 0.00 | 0.00 | 23 | 1009.1 |
| 20260507213743 | 74 | 275 | 15.0 | 24.0 | 0.00 | 0.00 | 0.00 | 22 | 1009.2 |
| 20260507213223 | 74 | 320 | 11.0 | 18.0 | 0.00 | 0.00 | 0.00 | 26 | 1009.2 |
| 20260507213020 | 74 | 309 | 9.0 | 20.0 | 0.00 | 0.00 | 0.00 | 28 | 1008.8 |
| 20260507212734 | 74 | 313 | 10.0 | 20.0 | 0.00 | 0.00 | 0.00 | 26 | 1009.3 |
| 20260507212246 | 74 | 305 | 14.0 | 26.0 | 0.00 | 0.00 | 0.00 | 26 | 1009.2 |
| 20260507211728 | 75 | 296 | 18.0 | 26.0 | 0.00 | 0.00 | 0.00 | 25 | 1009.1 |
| 20260507211526 | 75 | 302 | 17.0 | 24.0 | 0.00 | 0.00 | 0.00 | 26 | 1008.8 |
| 20260507211241 | 75 | 343 | 15.0 | 23.0 | 0.00 | 0.00 | 0.00 | 27 | 1009.2 |
| 20260507210725 | 75 | 344 | 10.0 | 23.0 | 0.00 | 0.00 | 0.00 | 27 | 1009.2 |
| 20260507210258 | 74 | 333 | 11.0 | 21.0 | 0.00 | 0.00 | 0.00 | 27 | 1009.4 |
| 20260507210058 | 73 | 305 | 6.0 | 20.0 | 0.00 | 0.00 | 0.00 | 27 | 1008.9 |
| 20260507210005 | 73 | 252 | 6.0 | 20.0 | 0.00 | 0.00 | 0.00 | 27 | 1008.9 |
| 20260507205722 | 74 | 250 | 11.0 | 20.0 | 0.00 | 0.00 | 0.00 | 28 | 1009.4 |
| 20260507205234 | 75 | 296 | 12.0 | 24.0 | 0.00 | 0.00 | 0.00 | 26 | 1009.3 |
| 20260507204746 | 75 | 292 | 17.0 | 24.0 | 0.00 | 0.00 | 0.00 | 24 | 1009.4 |
| 20260507204516 | 74 | 284 | 13.0 | 22.0 | 0.00 | 0.00 | 0.00 | 26 | 1009.1 |
| 20260507204231 | 74 | 293 | 13.0 | 22.0 | 0.00 | 0.00 | 0.00 | 25 | 1009.4 |
| 20260507203736 | 74 | 300 | 12.0 | 21.0 | 0.00 | 0.00 | 0.00 | 26 | 1009.5 |
| 20260507203221 | 75 | 319 | 14.0 | 21.0 | 0.00 | 0.00 | 0.00 | 23 | 1009.5 |
| 20260507203020 | 75 | 266 | 14.0 | 21.0 | 0.00 | 0.00 | 0.00 | 23 | 1009.1 |
| 20260507202732 | 75 | 290 | 13.0 | 21.0 | 0.00 | 0.00 | 0.00 | 26 | 1009.6 |
| 20260507202242 | 75 | 302 | 13.0 | 24.0 | 0.00 | 0.00 | 0.00 | 27 | 1009.6 |
| 20260507201727 | 74 | 229 | 8.0 | 24.0 | 0.00 | 0.00 | 0.00 | 28 | 1009.6 |
| 20260507201524 | 74 | 249 | 12.0 | 24.0 | 0.00 | 0.00 | 0.00 | 27 | 1009.3 |
| 20260507201242 | 75 | 284 | 10.0 | 21.0 | 0.00 | 0.00 | 0.00 | 29 | 1009.6 |
| 20260507200726 | 76 | 300 | 16.0 | 20.0 | 0.00 | 0.00 | 0.00 | 25 | 1009.6 |
| 20260507200253 | 76 | 323 | 13.0 | 19.0 | 0.00 | 0.00 | 0.00 | 25 | 1009.6 |
| 20260507200103 | 75 | 294 | 12.0 | 19.0 | 0.00 | 0.00 | 0.00 | 27 | 1009.3 |
| 20260507195803 | 74 | 297 | 10.0 | 22.0 | 0.00 | 0.00 | 0.00 | 31 | 1009.6 |
| 20260507195226 | 74 | 275 | 12.0 | 22.0 | 0.00 | 0.00 | 0.00 | 30 | 1009.7 |
| 20260507194739 | 74 | 290 | 11.0 | 20.0 | 0.00 | 0.00 | 0.00 | 31 | 1009.6 |
| 20260507194539 | 74 | 342 | 14.0 | 25.0 | 0.00 | 0.00 | 0.00 | 29 | 1009.3 |
| 20260507194224 | 75 | 289 | 13.0 | 25.0 | 0.00 | 0.00 | 0.00 | 30 | 1009.6 |
| 20260507193733 | 74 | 306 | 16.0 | 25.0 | 0.00 | 0.00 | 0.00 | 28 | 1009.5 |
| 20260507193246 | 74 | 238 | 11.0 | 19.0 | 0.00 | 0.00 | 0.00 | 28 | 1009.6 |
| 20260507193051 | 74 | 251 | 13.0 | 19.0 | 0.00 | 0.00 | 0.00 | 25 | 1009.2 |
| 20260507192729 | 75 | 262 | 13.0 | 18.0 | 0.00 | 0.00 | 0.00 | 29 | 1009.7 |
| 20260507192236 | 73 | 209 | 8.0 | 17.0 | 0.00 | 0.00 | 0.00 | 35 | 1009.7 |
| 20260507191748 | 73 | 317 | 8.0 | 21.0 | 0.00 | 0.00 | 0.00 | 31 | 1009.6 |
| 20260507191547 | 73 | 297 | 12.0 | 21.0 | 0.00 | 0.00 | 0.00 | 32 | 1009.3 |
| 20260507191233 | 74 | 244 | 16.0 | 23.0 | 0.00 | 0.00 | 0.00 | 33 | 1009.7 |
| 20260507190742 | 73 | 252 | 11.0 | 23.0 | 0.00 | 0.00 | 0.00 | 33 | 1009.6 |
| 20260507190226 | 72 | 263 | 9.0 | 19.0 | 0.00 | 0.00 | 0.00 | 34 | 1009.6 |
| 20260507190049 | 72 | 216 | 9.0 | 19.0 | 0.00 | 0.00 | 0.00 | 32 | 1009.4 |
| 20260507185737 | 71 | 279 | 14.0 | 20.0 | 0.00 | 0.00 | 0.00 | 34 | 1009.7 |
| 20260507185249 | 71 | 279 | 12.0 | 22.0 | 0.00 | 0.00 | 0.00 | 33 | 1009.8 |
| 20260507184730 | 74 | 238 | 14.0 | 21.0 | 0.00 | 0.00 | 0.00 | 31 | 1009.8 |
| 20260507184533 | 73 | 206 | 9.0 | 15.0 | 0.00 | 0.00 | 0.00 | 31 | 1009.7 |
| 20260507184302 | 74 | 257 | 6.0 | 14.0 | 0.00 | 0.00 | 0.00 | 37 | 1010.0 |
| 20260507183722 | 72 | 247 | 9.0 | 21.0 | 0.00 | 0.00 | 0.00 | 32 | 1010.0 |
| 20260507183235 | 71 | 267 | 9.0 | 19.0 | 0.00 | 0.00 | 0.00 | 35 | 1010.2 |
| 20260507183013 | 71 | 219 | 9.0 | 19.0 | 0.00 | 0.00 | 0.00 | 33 | 1009.9 |
| 20260507182745 | 72 | 284 | 12.0 | 19.0 | 0.00 | 0.00 | 0.00 | 34 | 1010.2 |
| 20260507182234 | 71 | 271 | 13.0 | 21.0 | 0.00 | 0.00 | 0.00 | 34 | 1010.2 |
| 20260507181746 | 71 | 254 | 15.0 | 21.0 | 0.00 | 0.00 | 0.00 | 34 | 1010.4 |
| 20260507181559 | 71 | 227 | 14.0 | 23.0 | 0.00 | 0.00 | 0.00 | 33 | 1010.2 |
| 20260507181228 | 71 | 238 | 15.0 | 23.0 | 0.00 | 0.00 | 0.00 | 33 | 1010.5 |
| 20260507180739 | 71 | 245 | 16.0 | 23.0 | 0.00 | 0.00 | 0.00 | 33 | 1010.5 |
| 20260507180223 | 71 | 259 | 11.0 | 29.0 | 0.00 | 0.00 | 0.00 | 35 | 1010.5 |
| 20260507180017 | 70 | 194 | 16.0 | 29.0 | 0.00 | 0.00 | 0.00 | 33 | 1010.2 |
| 20260507175733 | 70 | 215 | 13.0 | 24.0 | 0.00 | 0.00 | 0.00 | 36 | 1010.3 |
| 20260507175244 | 71 | 260 | 14.0 | 22.0 | 0.00 | 0.00 | 0.00 | 34 | 1010.5 |
| 20260507174726 | 71 | 260 | 15.0 | 24.0 | 0.00 | 0.00 | 0.00 | 33 | 1010.6 |
| 20260507174512 | 71 | 256 | 15.0 | 24.0 | 0.00 | 0.00 | 0.00 | 34 | 1010.4 |
| 20260507174238 | 71 | 259 | 14.0 | 24.0 | 0.00 | 0.00 | 0.00 | 32 | 1010.6 |
| 20260507173721 | 70 | 215 | 14.0 | 26.0 | 0.00 | 0.00 | 0.00 | 32 | 1010.7 |
| 20260507173309 | 70 | 234 | 19.0 | 26.0 | 0.00 | 0.00 | 0.00 | 31 | 1010.7 |
| 20260507173048 | 70 | 225 | 14.0 | 25.0 | 0.00 | 0.00 | 0.00 | 31 | 1010.4 |
| 20260507172729 | 70 | 234 | 13.0 | 25.0 | 0.00 | 0.00 | 0.00 | 31 | 1010.7 |
| 20260507172239 | 70 | 230 | 16.0 | 25.0 | 0.00 | 0.00 | 0.00 | 31 | 1010.7 |
| 20260507171722 | 70 | 241 | 13.0 | 25.0 | 0.00 | 0.00 | 0.00 | 32 | 1010.8 |
| 20260507171559 | 70 | 219 | 14.0 | 25.0 | 0.00 | 0.00 | 0.00 | 32 | 1010.6 |
| 20260507171236 | 70 | 201 | 13.0 | 24.0 | 0.00 | 0.00 | 0.00 | 31 | 1010.8 |
| 20260507170806 | 70 | 221 | 12.0 | 21.0 | 0.00 | 0.00 | 0.00 | 32 | 1011.0 |
| 20260507170227 | 70 | 199 | 13.0 | 25.0 | 0.00 | 0.00 | 0.00 | 31 | 1011.1 |
| 20260507170031 | 69 | 212 | 14.0 | 25.0 | 0.00 | 0.00 | 0.00 | 30 | 1010.9 |
| 20260507165734 | 69 | 225 | 8.0 | 23.0 | 0.00 | 0.00 | 0.00 | 33 | 1011.2 |
| 20260507165246 | 70 | 227 | 14.0 | 23.0 | 0.00 | 0.00 | 0.00 | 33 | 1011.3 |
| 20260507164730 | 69 | 211 | 13.0 | 20.0 | 0.00 | 0.00 | 0.00 | 34 | 1011.3 |
| 20260507164539 | 68 | 217 | 11.0 | 20.0 | 0.00 | 0.00 | 0.00 | 32 | 1011.1 |
| 20260507164244 | 69 | 213 | 14.0 | 22.0 | 0.00 | 0.00 | 0.00 | 30 | 1011.3 |
| 20260507163724 | 69 | 167 | 11.0 | 22.0 | 0.00 | 0.00 | 0.00 | 32 | 1011.3 |
| 20260507163234 | 69 | 200 | 14.0 | 22.0 | 0.00 | 0.00 | 0.00 | 33 | 1011.4 |
| 20260507163036 | 67 | 229 | 11.0 | 19.0 | 0.00 | 0.00 | 0.00 | 34 | 1011.3 |
| 20260507162745 | 67 | 214 | 12.0 | 21.0 | 0.00 | 0.00 | 0.00 | 34 | 1011.6 |
| 20260507162226 | 67 | 236 | 13.0 | 21.0 | 0.00 | 0.00 | 0.00 | 36 | 1011.6 |
| 20260507161753 | 66 | 215 | 13.0 | 20.0 | 0.00 | 0.00 | 0.00 | 35 | 1011.7 |
| 20260507161519 | 66 | 213 | 13.0 | 20.0 | 0.00 | 0.00 | 0.00 | 37 | 1011.7 |
| 20260507161224 | 66 | 225 | 13.0 | 20.0 | 0.00 | 0.00 | 0.00 | 39 | 1011.7 |
| 20260507160732 | 66 | 216 | 13.0 | 20.0 | 0.00 | 0.00 | 0.00 | 38 | 1011.8 |
| 20260507160243 | 67 | 221 | 12.0 | 20.0 | 0.00 | 0.00 | 0.00 | 41 | 1012.0 |
| 20260507160050 | 66 | 200 | 12.0 | 20.0 | 0.00 | 0.00 | 0.00 | 43 | 1011.9 |
| 20260507155726 | 65 | 231 | 11.0 | 16.0 | 0.00 | 0.00 | 0.00 | 41 | 1012.1 |
| 20260507155238 | 64 | 216 | 9.0 | 16.0 | 0.00 | 0.00 | 0.00 | 44 | 1012.2 |
| 20260507154722 | 64 | 219 | 10.0 | 16.0 | 0.00 | 0.00 | 0.00 | 45 | 1012.2 |
| 20260507154543 | 64 | 242 | 11.0 | 16.0 | 0.00 | 0.00 | 0.00 | 46 | 1012.1 |
| 20260507154230 | 64 | 239 | 11.0 | 17.0 | 0.00 | 0.00 | 0.00 | 47 | 1012.2 |
| 20260507153737 | 64 | 220 | 10.0 | 21.0 | 0.00 | 0.00 | 0.00 | 45 | 1012.2 |
| 20260507153249 | 63 | 244 | 12.0 | 21.0 | 0.00 | 0.00 | 0.00 | 44 | 1012.3 |
| 20260507153046 | 63 | 230 | 12.0 | 16.0 | 0.00 | 0.00 | 0.00 | 44 | 1012.2 |
| 20260507152731 | 64 | 186 | 9.0 | 16.0 | 0.00 | 0.00 | 0.00 | 47 | 1012.3 |
| 20260507152242 | 64 | 211 | 8.0 | 16.0 | 0.00 | 0.00 | 0.00 | 48 | 1012.3 |
| 20260507151725 | 62 | 239 | 12.0 | 15.0 | 0.00 | 0.00 | 0.00 | 47 | 1012.4 |
| 20260507151550 | 62 | 254 | 11.0 | 15.0 | 0.00 | 0.00 | 0.00 | 46 | 1012.3 |
| 20260507151239 | 63 | 193 | 11.0 | 15.0 | 0.00 | 0.00 | 0.00 | 48 | 1012.4 |
| 20260507150744 | 62 | 232 | 8.0 | 16.0 | 0.00 | 0.00 | 0.00 | 52 | 1012.4 |
| 20260507150227 | 61 | 235 | 10.0 | 16.0 | 0.00 | 0.00 | 0.00 | 51 | 1012.5 |
| 20260507150052 | 60 | 250 | 10.0 | 16.0 | 0.00 | 0.00 | 0.00 | 52 | 1012.4 |
| 20260507145738 | 61 | 225 | 10.0 | 18.0 | 0.00 | 0.00 | 0.00 | 52 | 1012.6 |
| 20260507145220 | 60 | 214 | 8.0 | 18.0 | 0.00 | 0.00 | 0.00 | 53 | 1012.6 |
| 20260507144734 | 60 | 225 | 10.0 | 16.0 | 0.00 | 0.00 | 0.00 | 56 | 1012.6 |
| 20260507144616 | 59 | 221 | 9.0 | 16.0 | 0.00 | 0.00 | 0.00 | 55 | 1012.5 |
| 20260507144246 | 60 | 211 | 7.0 | 16.0 | 0.00 | 0.00 | 0.00 | 54 | 1012.6 |
| 20260507143726 | 59 | 192 | 10.0 | 17.0 | 0.00 | 0.00 | 0.00 | 56 | 1012.7 |
| 20260507143235 | 59 | 228 | 13.0 | 17.0 | 0.00 | 0.00 | 0.00 | 55 | 1012.7 |
| 20260507143052 | 58 | 222 | 12.0 | 17.0 | 0.00 | 0.00 | 0.00 | 56 | 1012.7 |
| 20260507142742 | 58 | 250 | 13.0 | 18.0 | 0.00 | 0.00 | 0.00 | 57 | 1012.7 |
| 20260507142223 | 58 | 214 | 9.0 | 18.0 | 0.00 | 0.00 | 0.00 | 57 | 1012.8 |
| 20260507141754 | 57 | 221 | 11.0 | 16.0 | 0.00 | 0.00 | 0.00 | 58 | 1012.8 |
| 20260507141520 | 57 | 223 | 10.0 | 18.0 | 0.00 | 0.00 | 0.00 | 60 | 1012.8 |
| 20260507141246 | 57 | 227 | 9.0 | 18.0 | 0.00 | 0.00 | 0.00 | 59 | 1012.9 |
| 20260507140728 | 57 | 220 | 10.0 | 15.0 | 0.00 | 0.00 | 0.00 | 60 | 1012.9 |
| 20260507140238 | 56 | 228 | 10.0 | 18.0 | 0.00 | 0.00 | 0.00 | 62 | 1012.9 |
| 20260507140020 | 55 | 216 | 11.0 | 19.0 | 0.00 | 0.00 | 0.00 | 61 | 1013.0 |
| 20260507135750 | 56 | 238 | 11.0 | 19.0 | 0.00 | 0.00 | 0.00 | 62 | 1013.0 |
| 20260507135236 | 55 | 229 | 12.0 | 20.0 | 0.00 | 0.00 | 0.00 | 62 | 1013.0 |
| 20260507134747 | 55 | 223 | 12.0 | 20.0 | 0.00 | 0.00 | 0.00 | 63 | 1013.0 |
| 20260507134600 | 55 | 239 | 10.0 | 17.0 | 0.00 | 0.00 | 0.00 | 63 | 1013.0 |
| 20260507134232 | 55 | 243 | 10.0 | 17.0 | 0.00 | 0.00 | 0.00 | 64 | 1013.1 |
| 20260507133742 | 54 | 234 | 10.0 | 17.0 | 0.00 | 0.00 | 0.00 | 66 | 1013.1 |
| 20260507133225 | 53 | 231 | 12.0 | 17.0 | 0.00 | 0.00 | 0.00 | 67 | 1013.1 |
| 20260507133004 | 53 | 250 | 12.0 | 20.0 | 0.00 | 0.00 | 0.00 | 66 | 1013.1 |
| 20260507132737 | 53 | 225 | 11.0 | 20.0 | 0.00 | 0.00 | 0.00 | 67 | 1013.1 |
| 20260507132246 | 53 | 211 | 11.0 | 20.0 | 0.00 | 0.00 | 0.00 | 68 | 1013.2 |
| 20260507131729 | 52 | 216 | 10.0 | 15.0 | 0.00 | 0.00 | 0.00 | 69 | 1013.2 |
| 20260507131506 | 51 | 221 | 9.0 | 15.0 | 0.00 | 0.00 | 0.00 | 70 | 1013.2 |
| 20260507131237 | 51 | 184 | 9.0 | 15.0 | 0.00 | 0.00 | 0.00 | 71 | 1013.2 |
| 20260507130746 | 51 | 218 | 10.0 | 15.0 | 0.00 | 0.00 | 0.00 | 72 | 1013.3 |
| 20260507130229 | 50 | 211 | 10.0 | 14.0 | 0.00 | 0.00 | 0.00 | 73 | 1013.4 |
| 20260507130006 | 49 | 238 | 8.0 | 14.0 | 0.00 | 0.00 | 0.00 | 74 | 1013.4 |
| 20260507125741 | 50 | 238 | 11.0 | 14.0 | 0.00 | 0.00 | 0.00 | 74 | 1013.4 |
| 20260507125225 | 49 | 217 | 9.0 | 12.0 | 0.00 | 0.00 | 0.00 | 75 | 1013.5 |
| 20260507124735 | 49 | 242 | 9.0 | 17.0 | 0.00 | 0.00 | 0.00 | 76 | 1013.5 |
| 20260507124516 | 48 | 230 | 8.0 | 17.0 | 0.00 | 0.00 | 0.00 | 76 | 1013.5 |
| 20260507124230 | 48 | 231 | 11.0 | 17.0 | 0.00 | 0.00 | 0.00 | 76 | 1013.5 |
| 20260507123738 | 48 | 229 | 11.0 | 16.0 | 0.00 | 0.00 | 0.00 | 77 | 1013.4 |
| 20260507123245 | 47 | 215 | 11.0 | 16.0 | 0.00 | 0.00 | 0.00 | 77 | 1013.4 |
| 20260507123051 | 47 | 234 | 9.0 | 15.0 | 0.00 | 0.00 | 0.00 | 78 | 1013.4 |